| time (UTC) | temp C | wind direction | speed KPH | gust KPH | rain 1hr cm | rain 24hr cm | rain mn cm | humidity % | barometer mb |
| 20260831095526 | 25 | 198 | 4.8 | 9.7 | 0.00 | 0.00 | 0.00 | 56 | 1012.9 |
| 20260831095021 | 25 | 180 | 0.0 | 4.8 | 0.00 | 0.00 | 0.00 | 55 | 1013.0 |
| 20260831094518 | 25 | 175 | 3.2 | 9.7 | 0.00 | 0.00 | 0.00 | 55 | 1013.1 |
| 20260831094013 | 25 | 173 | 3.2 | 4.8 | 0.00 | 0.00 | 0.00 | 55 | 1013.0 |
| 20260831093513 | 26 | 173 | 4.8 | 8.0 | 0.00 | 0.00 | 0.00 | 54 | 1013.0 |
| 20260831093010 | 26 | 180 | 0.0 | 4.8 | 0.00 | 0.00 | 0.00 | 54 | 1013.2 |
| 20260831092505 | 26 | 200 | 1.6 | 6.4 | 0.00 | 0.00 | 0.00 | 54 | 1012.9 |
| 20260831092001 | 26 | 180 | 6.4 | 9.7 | 0.00 | 0.00 | 0.00 | 53 | 1012.5 |
| 20260831091455 | 26 | 200 | 4.8 | 9.7 | 0.00 | 0.00 | 0.00 | 53 | 1012.5 |
| 20260831090950 | 26 | 166 | 4.8 | 11.3 | 0.00 | 0.00 | 0.00 | 53 | 1012.6 |
| 20260831090446 | 26 | 180 | 8.0 | 12.9 | 0.00 | 0.00 | 0.00 | 52 | 1012.3 |
| 20260831085942 | 26 | 195 | 3.2 | 12.9 | 0.00 | 0.00 | 0.00 | 52 | 1012.4 |
| 20260831085437 | 26 | 161 | 8.0 | 12.9 | 0.00 | 0.00 | 0.00 | 52 | 1012.6 |
| 20260831084936 | 26 | 171 | 6.4 | 14.5 | 0.00 | 0.00 | 0.00 | 52 | 1012.3 |
| 20260831084433 | 26 | 160 | 4.8 | 14.5 | 0.00 | 0.00 | 0.00 | 51 | 1012.4 |
| 20260831083930 | 27 | 210 | 0.0 | 12.9 | 0.00 | 0.00 | 0.00 | 51 | 1012.5 |
| 20260831083425 | 27 | 209 | 4.8 | 12.9 | 0.00 | 0.00 | 0.00 | 51 | 1012.6 |
| 20260831082924 | 27 | 152 | 3.2 | 12.9 | 0.00 | 0.00 | 0.00 | 51 | 1012.4 |
| 20260831082423 | 27 | 180 | 3.2 | 12.9 | 0.00 | 0.00 | 0.00 | 50 | 1012.4 |
| 20260831081919 | 27 | 199 | 8.0 | 9.7 | 0.00 | 0.00 | 0.00 | 50 | 1012.6 |
| 20260831081415 | 27 | 187 | 8.0 | 14.5 | 0.00 | 0.00 | 0.00 | 50 | 1012.4 |
| 20260831080910 | 27 | 160 | 9.7 | 14.5 | 0.00 | 0.00 | 0.00 | 49 | 1012.4 |
| 20260831080405 | 27 | 152 | 8.0 | 12.9 | 0.00 | 0.00 | 0.00 | 49 | 1012.3 |
| 20260831075901 | 27 | 180 | 8.0 | 11.3 | 0.00 | 0.00 | 0.00 | 49 | 1012.5 |
| 20260831075356 | 27 | 181 | 8.0 | 14.5 | 0.00 | 0.00 | 0.00 | 49 | 1012.6 |
| 20260831074851 | 27 | 168 | 8.0 | 14.5 | 0.00 | 0.00 | 0.00 | 48 | 1012.5 |
| 20260831074350 | 28 | 181 | 8.0 | 17.7 | 0.00 | 0.00 | 0.00 | 48 | 1012.5 |
| 20260831073845 | 28 | 179 | 11.3 | 12.9 | 0.00 | 0.00 | 0.00 | 47 | 1012.6 |
| 20260831073344 | 28 | 166 | 6.4 | 16.1 | 0.00 | 0.00 | 0.00 | 47 | 1012.7 |
| 20260831072840 | 28 | 187 | 12.9 | 16.1 | 0.00 | 0.00 | 0.00 | 46 | 1012.9 |
| 20260831072335 | 28 | 155 | 6.4 | 14.5 | 0.00 | 0.00 | 0.00 | 46 | 1012.9 |
| 20260831071831 | 28 | 176 | 6.4 | 16.1 | 0.00 | 0.00 | 0.00 | 46 | 1012.9 |
| 20260831071330 | 28 | 186 | 9.7 | 19.3 | 0.00 | 0.00 | 0.00 | 45 | 1012.6 |
| 20260831070826 | 28 | 178 | 14.5 | 22.5 | 0.00 | 0.00 | 0.00 | 45 | 1012.6 |
| 20260831070324 | 28 | 176 | 6.4 | 14.5 | 0.00 | 0.00 | 0.00 | 45 | 1012.7 |
| 20260831065824 | 28 | 175 | 16.1 | 20.9 | 0.00 | 0.00 | 0.00 | 45 | 1012.4 |
| 20260831065322 | 28 | 173 | 9.7 | 19.3 | 0.00 | 0.00 | 0.00 | 44 | 1012.6 |
| 20260831064817 | 28 | 200 | 6.4 | 16.1 | 0.00 | 0.00 | 0.00 | 44 | 1012.7 |
| 20260831064307 | 28 | 181 | 9.7 | 17.7 | 0.00 | 0.00 | 0.00 | 43 | 1012.7 |
| 20260831063803 | 28 | 194 | 9.7 | 16.1 | 0.00 | 0.00 | 0.00 | 43 | 1012.9 |
| 20260831063257 | 28 | 194 | 9.7 | 9.7 | 0.00 | 0.00 | 0.00 | 43 | 1012.9 |
| 20260831062752 | 28 | 156 | 8.0 | 14.5 | 0.00 | 0.00 | 0.00 | 42 | 1012.9 |
| 20260831062247 | 29 | 177 | 11.3 | 17.7 | 0.00 | 0.00 | 0.00 | 42 | 1012.7 |
| 20260831061745 | 29 | 196 | 11.3 | 16.1 | 0.00 | 0.00 | 0.00 | 42 | 1012.9 |
| 20260831061240 | 29 | 180 | 8.0 | 14.5 | 0.00 | 0.00 | 0.00 | 41 | 1012.5 |
| 20260831060736 | 29 | 170 | 6.4 | 19.3 | 0.00 | 0.00 | 0.00 | 41 | 1012.9 |
| 20260831060236 | 29 | 177 | 11.3 | 14.5 | 0.00 | 0.00 | 0.00 | 40 | 1012.7 |
| 20260831055735 | 29 | 186 | 6.4 | 16.1 | 0.00 | 0.00 | 0.00 | 40 | 1012.9 |
| 20260831055230 | 29 | 197 | 6.4 | 16.1 | 0.00 | 0.00 | 0.00 | 40 | 1013.1 |
| 20260831054725 | 29 | 168 | 6.4 | 14.5 | 0.00 | 0.00 | 0.00 | 40 | 1012.9 |
| 20260831054220 | 29 | 168 | 6.4 | 9.7 | 0.00 | 0.00 | 0.00 | 40 | 1013.1 |
| 20260831053713 | 29 | 157 | 4.8 | 12.9 | 0.00 | 0.00 | 0.00 | 39 | 1012.9 |
| 20260831053212 | 29 | 176 | 9.7 | 14.5 | 0.00 | 0.00 | 0.00 | 39 | 1012.7 |
| 20260831052712 | 29 | 166 | 9.7 | 12.9 | 0.00 | 0.00 | 0.00 | 38 | 1012.7 |
| 20260831052212 | 29 | 192 | 6.4 | 14.5 | 0.00 | 0.00 | 0.00 | 38 | 1013.0 |
| 20260831051709 | 30 | 185 | 12.9 | 14.5 | 0.00 | 0.00 | 0.00 | 37 | 1012.7 |
| 20260831051208 | 29 | 188 | 8.0 | 16.1 | 0.00 | 0.00 | 0.00 | 37 | 1012.6 |
| 20260831050703 | 29 | 171 | 4.8 | 12.9 | 0.00 | 0.00 | 0.00 | 36 | 1012.7 |
| 20260831050202 | 28 | 160 | 4.8 | 11.3 | 0.00 | 0.00 | 0.00 | 36 | 1012.5 |
| 20260831045657 | 29 | 190 | 4.8 | 11.3 | 0.00 | 0.00 | 0.00 | 35 | 1012.5 |
| 20260831045151 | 29 | 190 | 4.8 | 9.7 | 0.00 | 0.00 | 0.00 | 35 | 1012.5 |
| 20260831044646 | 29 | 187 | 4.8 | 11.3 | 0.00 | 0.00 | 0.00 | 34 | 1012.5 |
| 20260831044141 | 30 | 149 | 4.8 | 9.7 | 0.00 | 0.00 | 0.00 | 34 | 1012.4 |
| 20260831043637 | 30 | 185 | 4.8 | 9.7 | 0.00 | 0.00 | 0.00 | 34 | 1012.4 |
| 20260831043132 | 30 | 164 | 6.4 | 9.7 | 0.00 | 0.00 | 0.00 | 33 | 1012.4 |
| 20260831042631 | 30 | 169 | 8.0 | 11.3 | 0.00 | 0.00 | 0.00 | 33 | 1012.1 |
| 20260831042126 | 30 | 170 | 4.8 | 8.0 | 0.00 | 0.00 | 0.00 | 33 | 1012.2 |
| 20260831041621 | 30 | 151 | 3.2 | 8.0 | 0.00 | 0.00 | 0.00 | 33 | 1012.1 |
| 20260831041121 | 30 | 166 | 4.8 | 9.7 | 0.00 | 0.00 | 0.00 | 33 | 1011.9 |
| 20260831040616 | 30 | 154 | 3.2 | 8.0 | 0.00 | 0.00 | 0.00 | 33 | 1012.1 |
| 20260831040115 | 30 | 154 | 3.2 | 6.4 | 0.00 | 0.00 | 0.00 | 32 | 1012.1 |
| 20260831035614 | 30 | 150 | 3.2 | 6.4 | 0.00 | 0.00 | 0.00 | 32 | 1012.0 |
| 20260831035109 | 30 | 158 | 3.2 | 6.4 | 0.00 | 0.00 | 0.00 | 32 | 1011.9 |
| 20260831034608 | 30 | 157 | 4.8 | 6.4 | 0.00 | 0.00 | 0.00 | 32 | 1011.5 |
| 20260831034103 | 30 | 155 | 4.8 | 8.0 | 0.00 | 0.00 | 0.00 | 32 | 1011.9 |
| 20260831033559 | 30 | 177 | 4.8 | 8.0 | 0.00 | 0.00 | 0.00 | 32 | 1011.8 |
| 20260831033054 | 30 | 166 | 3.2 | 6.4 | 0.00 | 0.00 | 0.00 | 31 | 1011.6 |
| 20260831032553 | 30 | 180 | 3.2 | 6.4 | 0.00 | 0.00 | 0.00 | 31 | 1011.6 |
| 20260831032049 | 30 | 157 | 1.6 | 4.8 | 0.00 | 0.00 | 0.00 | 30 | 1011.4 |
| 20260831031548 | 30 | 175 | 3.2 | 6.4 | 0.00 | 0.00 | 0.00 | 30 | 1011.3 |
| 20260831031048 | 31 | 192 | 0.0 | 6.4 | 0.00 | 0.00 | 0.00 | 30 | 1011.3 |
| 20260831030547 | 31 | 170 | 3.2 | 8.0 | 0.00 | 0.00 | 0.00 | 29 | 1011.3 |
| 20260831030046 | 31 | 159 | 3.2 | 8.0 | 0.00 | 0.00 | 0.00 | 28 | 1011.1 |
| 20260831025545 | 31 | 177 | 4.8 | 8.0 | 0.00 | 0.00 | 0.00 | 28 | 1011.1 |
| 20260831025040 | 31 | 139 | 3.2 | 8.0 | 0.00 | 0.00 | 0.00 | 29 | 1010.9 |
| 20260831024536 | 30 | 180 | 0.0 | 8.0 | 0.00 | 0.00 | 0.00 | 29 | 1010.8 |
| 20260831024035 | 31 | 169 | 3.2 | 6.4 | 0.00 | 0.00 | 0.00 | 30 | 1010.9 |
| 20260831023533 | 31 | 163 | 4.8 | 8.0 | 0.00 | 0.00 | 0.00 | 29 | 1010.8 |
| 20260831023027 | 31 | 152 | 4.8 | 8.0 | 0.00 | 0.00 | 0.00 | 28 | 1010.7 |
| 20260831022527 | 31 | 194 | 4.8 | 6.4 | 0.00 | 0.00 | 0.00 | 28 | 1010.6 |
| 20260831022022 | 31 | 157 | 3.2 | 3.2 | 0.00 | 0.00 | 0.00 | 28 | 1010.3 |
| 20260831021521 | 31 | 173 | 1.6 | 6.4 | 0.00 | 0.00 | 0.00 | 28 | 1010.3 |
| 20260831021017 | 32 | 180 | 0.0 | 6.4 | 0.00 | 0.00 | 0.00 | 28 | 1010.4 |
| 20260831020512 | 32 | 160 | 1.6 | 6.4 | 0.00 | 0.00 | 0.00 | 28 | 1010.3 |
| 20260831020007 | 32 | 162 | 3.2 | 4.8 | 0.00 | 0.00 | 0.00 | 27 | 1010.1 |
| 20260831015503 | 32 | 175 | 0.0 | 4.8 | 0.00 | 0.00 | 0.00 | 26 | 1010.1 |
| 20260831014958 | 33 | 172 | 4.8 | 4.8 | 0.00 | 0.00 | 0.00 | 26 | 1010.0 |
| 20260831014452 | 33 | 144 | 3.2 | 4.8 | 0.00 | 0.00 | 0.00 | 25 | 1010.2 |
| 20260831013948 | 33 | 120 | 1.6 | 8.0 | 0.00 | 0.00 | 0.00 | 25 | 1010.2 |
| 20260831013444 | 33 | 157 | 3.2 | 8.0 | 0.00 | 0.00 | 0.00 | 25 | 1010.1 |
| 20260831012937 | 33 | 177 | 3.2 | 6.4 | 0.00 | 0.00 | 0.00 | 25 | 1010.0 |
| 20260831012433 | 34 | 176 | 3.2 | 6.4 | 0.00 | 0.00 | 0.00 | 24 | 1010.0 |
| 20260831011933 | 34 | 146 | 3.2 | 6.4 | 0.00 | 0.00 | 0.00 | 24 | 1009.6 |
| 20260831011427 | 35 | 117 | 3.2 | 8.0 | 0.00 | 0.00 | 0.00 | 23 | 1009.9 |
| 20260831010923 | 35 | 90 | 0.0 | 3.2 | 0.00 | 0.00 | 0.00 | 23 | 1009.9 |
| 20260831010418 | 35 | 74 | 1.6 | 3.2 | 0.00 | 0.00 | 0.00 | 22 | 1009.9 |
| 20260831005913 | 36 | 131 | 0.0 | 8.0 | 0.00 | 0.00 | 0.00 | 22 | 1009.8 |
| 20260831005409 | 36 | 152 | 3.2 | 12.9 | 0.00 | 0.00 | 0.00 | 21 | 1009.8 |
| 20260831004903 | 36 | 173 | 14.5 | 14.5 | 0.00 | 0.00 | 0.00 | 21 | 1009.8 |
| 20260831004400 | 37 | 75 | 1.6 | 8.0 | 0.00 | 0.00 | 0.00 | 20 | 1009.7 |
| 20260831003855 | 37 | 96 | 0.0 | 8.0 | 0.00 | 0.00 | 0.00 | 20 | 1009.7 |
| 20260831003351 | 37 | 172 | 0.0 | 6.4 | 0.00 | 0.00 | 0.00 | 20 | 1010.0 |
| 20260831002850 | 37 | 135 | 8.0 | 16.1 | 0.00 | 0.00 | 0.00 | 19 | 1009.9 |
| 20260831002349 | 37 | 90 | 0.0 | 9.7 | 0.00 | 0.00 | 0.00 | 20 | 1009.5 |
| 20260831001845 | 37 | 69 | 0.0 | 17.7 | 0.00 | 0.00 | 0.00 | 20 | 1009.7 |
| 20260831001346 | 37 | 186 | 1.6 | 8.0 | 0.00 | 0.00 | 0.00 | 20 | 1009.6 |
| 20260831000843 | 38 | 120 | 0.0 | 6.4 | 0.00 | 0.00 | 0.00 | 20 | 1009.6 |
| 20260831000340 | 38 | 90 | 0.0 | 8.0 | 0.00 | 0.00 | 0.00 | 20 | 1009.8 |
| 20260830235836 | 38 | 95 | 3.2 | 9.7 | 0.00 | 0.00 | 0.00 | 19 | 1009.7 |
| 20260830235331 | 37 | 154 | 0.0 | 20.9 | 0.00 | 0.00 | 0.00 | 20 | 1009.7 |
| 20260830234827 | 37 | 155 | 4.8 | 12.9 | 0.00 | 0.00 | 0.00 | 20 | 1009.7 |
| 20260830234322 | 38 | 98 | 1.6 | 9.7 | 0.00 | 0.00 | 0.00 | 19 | 1009.7 |
| 20260830233818 | 38 | 140 | 0.0 | 4.8 | 0.00 | 0.00 | 0.00 | 20 | 1009.8 |
| 20260830233313 | 38 | 153 | 6.4 | 14.5 | 0.00 | 0.00 | 0.00 | 20 | 1010.0 |
| 20260830232809 | 38 | 134 | 8.0 | 14.5 | 0.00 | 0.00 | 0.00 | 20 | 1009.9 |
| 20260830232306 | 38 | 162 | 4.8 | 9.7 | 0.00 | 0.00 | 0.00 | 20 | 1009.9 |
| 20260830231800 | 38 | 184 | 6.4 | 6.4 | 0.00 | 0.00 | 0.00 | 20 | 1010.1 |
| 20260830231255 | 38 | 216 | 0.0 | 17.7 | 0.00 | 0.00 | 0.00 | 20 | 1010.0 |
| 20260830230749 | 38 | 127 | 9.7 | 9.7 | 0.00 | 0.00 | 0.00 | 19 | 1010.2 |
| 20260830230245 | 38 | 101 | 4.8 | 9.7 | 0.00 | 0.00 | 0.00 | 19 | 1010.0 |
| 20260830225744 | 38 | 77 | 0.0 | 12.9 | 0.00 | 0.00 | 0.00 | 21 | 1010.2 |
| 20260830225239 | 38 | 165 | 4.8 | 11.3 | 0.00 | 0.00 | 0.00 | 20 | 1009.9 |
| 20260830224738 | 38 | 148 | 9.7 | 11.3 | 0.00 | 0.00 | 0.00 | 20 | 1010.1 |
| 20260830224234 | 38 | 159 | 9.7 | 20.9 | 0.00 | 0.00 | 0.00 | 20 | 1010.0 |
| 20260830223730 | 39 | 102 | 4.8 | 11.3 | 0.00 | 0.00 | 0.00 | 20 | 1009.9 |
| 20260830223226 | 38 | 111 | 6.4 | 17.7 | 0.00 | 0.00 | 0.00 | 21 | 1010.1 |
| 20260830222720 | 39 | 158 | 4.8 | 8.0 | 0.00 | 0.00 | 0.00 | 21 | 1010.2 |
| 20260830222216 | 39 | 104 | 8.0 | 11.3 | 0.00 | 0.00 | 0.00 | 20 | 1010.2 |
| 20260830221711 | 38 | 190 | 4.8 | 6.4 | 0.00 | 0.00 | 0.00 | 21 | 1010.1 |
| 20260830221208 | 38 | 71 | 3.2 | 11.3 | 0.00 | 0.00 | 0.00 | 22 | 1010.2 |
| 20260830220703 | 38 | 262 | 4.8 | 11.3 | 0.00 | 0.00 | 0.00 | 22 | 1010.4 |
| 20260830220202 | 39 | 119 | 14.5 | 17.7 | 0.00 | 0.00 | 0.00 | 21 | 1010.7 |
| 20260830215701 | 39 | 102 | 3.2 | 4.8 | 0.00 | 0.00 | 0.00 | 22 | 1010.1 |
| 20260830215155 | 38 | 154 | 4.8 | 11.3 | 0.00 | 0.00 | 0.00 | 22 | 1010.4 |
| 20260830214651 | 38 | 187 | 1.6 | 14.5 | 0.00 | 0.00 | 0.00 | 23 | 1010.6 |
| 20260830214145 | 38 | 74 | 1.6 | 9.7 | 0.00 | 0.00 | 0.00 | 23 | 1010.7 |
| 20260830213644 | 38 | 153 | 11.3 | 16.1 | 0.00 | 0.00 | 0.00 | 23 | 1010.7 |
| 20260830213140 | 38 | 125 | 4.8 | 11.3 | 0.00 | 0.00 | 0.00 | 23 | 1011.1 |
| 20260830212636 | 38 | 178 | 6.4 | 11.3 | 0.00 | 0.00 | 0.00 | 23 | 1010.9 |
| 20260830212131 | 38 | 180 | 8.0 | 11.3 | 0.00 | 0.00 | 0.00 | 24 | 1010.8 |
| 20260830211626 | 38 | 77 | 0.0 | 14.5 | 0.00 | 0.00 | 0.00 | 23 | 1011.0 |
| 20260830211125 | 38 | 172 | 11.3 | 24.1 | 0.00 | 0.00 | 0.00 | 24 | 1011.2 |
| 20260830210621 | 38 | 177 | 4.8 | 14.5 | 0.00 | 0.00 | 0.00 | 24 | 1011.3 |
| 20260830210120 | 39 | 74 | 1.6 | 20.9 | 0.00 | 0.00 | 0.00 | 23 | 1011.3 |
| 20260830205617 | 38 | 151 | 11.3 | 22.5 | 0.00 | 0.00 | 0.00 | 24 | 1011.0 |
| 20260830205113 | 38 | 126 | 3.2 | 8.0 | 0.00 | 0.00 | 0.00 | 24 | 1011.2 |
| 20260830204612 | 38 | 285 | 1.6 | 8.0 | 0.00 | 0.00 | 0.00 | 24 | 1011.4 |
| 20260830204111 | 38 | 167 | 9.7 | 14.5 | 0.00 | 0.00 | 0.00 | 25 | 1011.6 |
| 20260830203608 | 38 | 145 | 6.4 | 11.3 | 0.00 | 0.00 | 0.00 | 24 | 1011.8 |
| 20260830203107 | 38 | 128 | 4.8 | 9.7 | 0.00 | 0.00 | 0.00 | 25 | 1011.6 |
| 20260830202602 | 37 | 166 | 4.8 | 14.5 | 0.00 | 0.00 | 0.00 | 26 | 1011.8 |
| 20260830202057 | 37 | 182 | 6.4 | 6.4 | 0.00 | 0.00 | 0.00 | 26 | 1011.9 |
| 20260830201557 | 37 | 169 | 3.2 | 8.0 | 0.00 | 0.00 | 0.00 | 26 | 1012.0 |
| 20260830201052 | 37 | 191 | 4.8 | 11.3 | 0.00 | 0.00 | 0.00 | 27 | 1012.2 |
| 20260830200548 | 37 | 165 | 16.1 | 17.7 | 0.00 | 0.00 | 0.00 | 27 | 1012.2 |
| 20260830200046 | 37 | 117 | 8.0 | 19.3 | 0.00 | 0.00 | 0.00 | 27 | 1012.1 |
| 20260830195542 | 37 | 180 | 3.2 | 19.3 | 0.00 | 0.00 | 0.00 | 27 | 1012.2 |
| 20260830195040 | 37 | 163 | 6.4 | 14.5 | 0.00 | 0.00 | 0.00 | 27 | 1012.6 |
| 20260830194539 | 36 | 210 | 3.2 | 6.4 | 0.00 | 0.00 | 0.00 | 27 | 1012.6 |
| 20260830194039 | 36 | 177 | 4.8 | 11.3 | 0.00 | 0.00 | 0.00 | 27 | 1012.6 |
| 20260830193538 | 36 | 164 | 11.3 | 20.9 | 0.00 | 0.00 | 0.00 | 28 | 1012.6 |
| 20260830193034 | 36 | 82 | 4.8 | 11.3 | 0.00 | 0.00 | 0.00 | 28 | 1012.7 |
| 20260830192530 | 36 | 216 | 0.0 | 11.3 | 0.00 | 0.00 | 0.00 | 29 | 1012.6 |
| 20260830192029 | 36 | 181 | 8.0 | 14.5 | 0.00 | 0.00 | 0.00 | 29 | 1012.9 |
| 20260830191525 | 36 | 157 | 6.4 | 17.7 | 0.00 | 0.00 | 0.00 | 29 | 1013.0 |
| 20260830191020 | 36 | 178 | 4.8 | 11.3 | 0.00 | 0.00 | 0.00 | 30 | 1013.0 |
| 20260830190515 | 36 | 192 | 8.0 | 19.3 | 0.00 | 0.00 | 0.00 | 30 | 1013.0 |
| 20260830190010 | 36 | 341 | 0.0 | 11.3 | 0.00 | 0.00 | 0.00 | 30 | 1012.9 |
| 20260830185504 | 35 | 57 | 0.0 | 4.8 | 0.00 | 0.00 | 0.00 | 30 | 1013.3 |
| 20260830185000 | 35 | 166 | 0.0 | 11.3 | 0.00 | 0.00 | 0.00 | 30 | 1013.1 |
| 20260830184459 | 35 | 160 | 6.4 | 11.3 | 0.00 | 0.00 | 0.00 | 30 | 1013.2 |
| 20260830183953 | 36 | 196 | 8.0 | 11.3 | 0.00 | 0.00 | 0.00 | 30 | 1013.3 |
| 20260830183448 | 36 | 240 | 0.0 | 3.2 | 0.00 | 0.00 | 0.00 | 31 | 1013.3 |
| 20260830182943 | 35 | 15 | 1.6 | 9.7 | 0.00 | 0.00 | 0.00 | 31 | 1013.6 |
| 20260830182438 | 35 | 182 | 6.4 | 12.9 | 0.00 | 0.00 | 0.00 | 31 | 1013.4 |
| 20260830181929 | 35 | 243 | 4.8 | 8.0 | 0.00 | 0.00 | 0.00 | 31 | 1013.6 |
| 20260830181424 | 35 | 218 | 4.8 | 12.9 | 0.00 | 0.00 | 0.00 | 32 | 1013.5 |
| 20260830180919 | 35 | 90 | 11.3 | 11.3 | 0.00 | 0.00 | 0.00 | 32 | 1013.7 |
| 20260830180418 | 34 | 139 | 4.8 | 14.5 | 0.00 | 0.00 | 0.00 | 33 | 1013.8 |
| 20260830175917 | 35 | 157 | 4.8 | 8.0 | 0.00 | 0.00 | 0.00 | 32 | 1013.9 |
| 20260830175412 | 35 | 114 | 0.0 | 9.7 | 0.00 | 0.00 | 0.00 | 33 | 1013.8 |
| 20260830174907 | 34 | 157 | 6.4 | 11.3 | 0.00 | 0.00 | 0.00 | 34 | 1013.9 |
| 20260830174402 | 34 | 150 | 4.8 | 8.0 | 0.00 | 0.00 | 0.00 | 34 | 1013.8 |
| 20260830173857 | 33 | 220 | 8.0 | 9.7 | 0.00 | 0.00 | 0.00 | 34 | 1014.3 |
| 20260830173353 | 33 | 105 | 3.2 | 11.3 | 0.00 | 0.00 | 0.00 | 34 | 1014.4 |
| 20260830172849 | 33 | 148 | 3.2 | 12.9 | 0.00 | 0.00 | 0.00 | 35 | 1014.4 |
| 20260830172345 | 33 | 178 | 6.4 | 11.3 | 0.00 | 0.00 | 0.00 | 35 | 1014.4 |
| 20260830171840 | 33 | 109 | 6.4 | 9.7 | 0.00 | 0.00 | 0.00 | 35 | 1014.4 |
| 20260830171336 | 32 | 135 | 3.2 | 9.7 | 0.00 | 0.00 | 0.00 | 37 | 1014.4 |
| 20260830170831 | 32 | 107 | 3.2 | 17.7 | 0.00 | 0.00 | 0.00 | 37 | 1014.7 |
| 20260830170330 | 33 | 180 | 11.3 | 12.9 | 0.00 | 0.00 | 0.00 | 37 | 1014.5 |
| 20260830165828 | 33 | 203 | 4.8 | 9.7 | 0.00 | 0.00 | 0.00 | 37 | 1014.6 |
| 20260830165325 | 32 | 169 | 3.2 | 8.0 | 0.00 | 0.00 | 0.00 | 37 | 1014.7 |
| 20260830164821 | 32 | 166 | 9.7 | 12.9 | 0.00 | 0.00 | 0.00 | 40 | 1014.7 |
| 20260830164316 | 31 | 200 | 0.0 | 14.5 | 0.00 | 0.00 | 0.00 | 41 | 1015.0 |
| 20260830163814 | 31 | 166 | 11.3 | 12.9 | 0.00 | 0.00 | 0.00 | 42 | 1014.9 |
| 20260830163308 | 31 | 164 | 3.2 | 9.7 | 0.00 | 0.00 | 0.00 | 41 | 1014.7 |
| 20260830162803 | 31 | 154 | 6.4 | 11.3 | 0.00 | 0.00 | 0.00 | 42 | 1014.9 |
| 20260830162300 | 31 | 214 | 3.2 | 12.9 | 0.00 | 0.00 | 0.00 | 43 | 1015.0 |
| 20260830161755 | 30 | 166 | 4.8 | 12.9 | 0.00 | 0.00 | 0.00 | 44 | 1014.9 |
| 20260830161254 | 30 | 166 | 0.0 | 8.0 | 0.00 | 0.00 | 0.00 | 44 | 1015.0 |
| 20260830160749 | 30 | 200 | 6.4 | 17.7 | 0.00 | 0.00 | 0.00 | 45 | 1014.9 |
| 20260830160249 | 30 | 161 | 4.8 | 17.7 | 0.00 | 0.00 | 0.00 | 46 | 1014.8 |
| 20260830155745 | 30 | 151 | 4.8 | 17.7 | 0.00 | 0.00 | 0.00 | 46 | 1015.0 |
| 20260830155241 | 29 | 174 | 4.8 | 16.1 | 0.00 | 0.00 | 0.00 | 46 | 1015.1 |
| 20260830154736 | 30 | 195 | 6.4 | 9.7 | 0.00 | 0.00 | 0.00 | 46 | 1014.9 |
| 20260830154232 | 28 | 185 | 9.7 | 14.5 | 0.00 | 0.00 | 0.00 | 47 | 1015.0 |
| 20260830153728 | 28 | 162 | 6.4 | 17.7 | 0.00 | 0.00 | 0.00 | 49 | 1015.1 |
| 20260830153223 | 28 | 119 | 0.0 | 9.7 | 0.00 | 0.00 | 0.00 | 48 | 1015.1 |
| 20260830152721 | 28 | 187 | 8.0 | 14.5 | 0.00 | 0.00 | 0.00 | 49 | 1015.3 |
| 20260830152216 | 28 | 170 | 8.0 | 12.9 | 0.00 | 0.00 | 0.00 | 49 | 1015.5 |
| 20260830151711 | 28 | 178 | 6.4 | 11.3 | 0.00 | 0.00 | 0.00 | 50 | 1015.3 |
| 20260830151210 | 28 | 169 | 11.3 | 14.5 | 0.00 | 0.00 | 0.00 | 50 | 1015.1 |
| 20260830150705 | 27 | 142 | 4.8 | 14.5 | 0.00 | 0.00 | 0.00 | 51 | 1015.5 |
| 20260830150205 | 27 | 157 | 8.0 | 9.7 | 0.00 | 0.00 | 0.00 | 51 | 1015.0 |
| 20260830145700 | 27 | 166 | 4.8 | 12.9 | 0.00 | 0.00 | 0.00 | 51 | 1015.1 |
| 20260830145155 | 27 | 188 | 6.4 | 11.3 | 0.00 | 0.00 | 0.00 | 52 | 1015.4 |
| 20260830144650 | 27 | 197 | 4.8 | 11.3 | 0.00 | 0.00 | 0.00 | 52 | 1015.5 |
| 20260830144146 | 27 | 180 | 8.0 | 14.5 | 0.00 | 0.00 | 0.00 | 52 | 1015.3 |
| 20260830143642 | 27 | 143 | 4.8 | 12.9 | 0.00 | 0.00 | 0.00 | 53 | 1015.5 |
| 20260830143140 | 26 | 186 | 0.0 | 14.5 | 0.00 | 0.00 | 0.00 | 53 | 1015.3 |
| 20260830142636 | 26 | 188 | 8.0 | 14.5 | 0.00 | 0.00 | 0.00 | 54 | 1015.3 |
| 20260830142136 | 26 | 177 | 4.8 | 11.3 | 0.00 | 0.00 | 0.00 | 54 | 1015.4 |
| 20260830141631 | 26 | 180 | 3.2 | 6.4 | 0.00 | 0.00 | 0.00 | 54 | 1015.3 |
| 20260830141126 | 26 | 183 | 4.8 | 8.0 | 0.00 | 0.00 | 0.00 | 55 | 1015.1 |
| 20260830140621 | 26 | 194 | 4.8 | 9.7 | 0.00 | 0.00 | 0.00 | 55 | 1015.4 |
| 20260830140116 | 26 | 186 | 4.8 | 9.7 | 0.00 | 0.00 | 0.00 | 55 | 1015.4 |
| 20260830135615 | 26 | 162 | 6.4 | 6.4 | 0.00 | 0.00 | 0.00 | 55 | 1015.5 |
| 20260830135111 | 26 | 168 | 3.2 | 6.4 | 0.00 | 0.00 | 0.00 | 55 | 1015.6 |
| 20260830134607 | 26 | 198 | 1.6 | 6.4 | 0.00 | 0.00 | 0.00 | 55 | 1015.4 |
| 20260830134102 | 25 | 151 | 0.0 | 4.8 | 0.00 | 0.00 | 0.00 | 56 | 1015.6 |
| 20260830133557 | 25 | 121 | 4.8 | 4.8 | 0.00 | 0.00 | 0.00 | 56 | 1015.4 |
| 20260830133052 | 25 | 75 | 0.0 | 1.6 | 0.00 | 0.00 | 0.00 | 56 | 1015.3 |
| 20260830132548 | 25 | 90 | 0.0 | 0.0 | 0.00 | 0.00 | 0.00 | 56 | 1015.4 |
| 20260830132043 | 25 | 90 | 0.0 | 0.0 | 0.00 | 0.00 | 0.00 | 58 | 1015.0 |
| 20260830131542 | 25 | 90 | 0.0 | 0.0 | 0.00 | 0.00 | 0.00 | 59 | 1015.0 |
| 20260830131037 | 23 | 90 | 0.0 | 1.6 | 0.00 | 0.00 | 0.00 | 63 | 1015.0 |
| 20260830130532 | 22 | 23 | 1.6 | 3.2 | 0.00 | 0.00 | 0.00 | 65 | 1014.9 |
| 20260830130027 | 21 | 7 | 0.0 | 3.2 | 0.00 | 0.00 | 0.00 | 64 | 1015.0 |
| 20260830125521 | 21 | 82 | 0.0 | 3.2 | 0.00 | 0.00 | 0.00 | 65 | 1015.0 |
| 20260830125015 | 21 | 6 | 0.0 | 3.2 | 0.00 | 0.00 | 0.00 | 64 | 1014.7 |
| 20260830124509 | 22 | 114 | 0.0 | 3.2 | 0.00 | 0.00 | 0.00 | 63 | 1015.0 |
| 20260830124005 | 22 | 264 | 0.0 | 0.0 | 0.00 | 0.00 | 0.00 | 64 | 1014.8 |
| 20260830123502 | 22 | 264 | 0.0 | 0.0 | 0.00 | 0.00 | 0.00 | 64 | 1014.7 |
| 20260830123001 | 22 | 264 | 0.0 | 0.0 | 0.00 | 0.00 | 0.00 | 63 | 1014.6 |
| 20260830122459 | 22 | 243 | 0.0 | 3.2 | 0.00 | 0.00 | 0.00 | 64 | 1014.3 |
| 20260830121954 | 22 | 195 | 1.6 | 1.6 | 0.00 | 0.00 | 0.00 | 64 | 1014.6 |
| 20260830121450 | 22 | 229 | 0.0 | 0.0 | 0.00 | 0.00 | 0.00 | 63 | 1014.5 |
| 20260830120949 | 23 | 229 | 0.0 | 0.0 | 0.00 | 0.00 | 0.00 | 63 | 1014.5 |
| 20260830120444 | 23 | 194 | 0.0 | 3.2 | 0.00 | 0.00 | 0.00 | 62 | 1014.5 |
| 20260830115941 | 23 | 176 | 3.2 | 6.4 | 0.00 | 0.00 | 0.00 | 62 | 1014.1 |
| 20260830115437 | 23 | 188 | 0.0 | 6.4 | 0.00 | 0.00 | 0.00 | 62 | 1013.9 |
| 20260830114932 | 23 | 147 | 3.2 | 3.2 | 0.00 | 0.00 | 0.00 | 61 | 1014.1 |
| 20260830114429 | 23 | 175 | 1.6 | 4.8 | 0.00 | 0.00 | 0.00 | 61 | 1014.1 |
| 20260830113928 | 23 | 171 | 4.8 | 6.4 | 0.00 | 0.00 | 0.00 | 60 | 1013.9 |
| 20260830113424 | 23 | 172 | 0.0 | 4.8 | 0.00 | 0.00 | 0.00 | 60 | 1014.1 |
| 20260830112919 | 23 | 161 | 3.2 | 4.8 | 0.00 | 0.00 | 0.00 | 60 | 1014.3 |
| 20260830112415 | 24 | 166 | 4.8 | 6.4 | 0.00 | 0.00 | 0.00 | 60 | 1013.7 |
| 20260830111911 | 23 | 120 | 1.6 | 6.4 | 0.00 | 0.00 | 0.00 | 59 | 1013.9 |
| 20260830111406 | 24 | 162 | 6.4 | 8.0 | 0.00 | 0.00 | 0.00 | 59 | 1013.9 |
| 20260830110901 | 24 | 180 | 3.2 | 9.7 | 0.00 | 0.00 | 0.00 | 59 | 1014.1 |
| 20260830110357 | 24 | 185 | 3.2 | 8.0 | 0.00 | 0.00 | 0.00 | 59 | 1013.8 |
| 20260830105856 | 24 | 185 | 4.8 | 8.0 | 0.00 | 0.00 | 0.00 | 58 | 1013.9 |
| 20260830105353 | 24 | 150 | 4.8 | 8.0 | 0.00 | 0.00 | 0.00 | 58 | 1013.8 |
| 20260830104849 | 24 | 186 | 6.4 | 6.4 | 0.00 | 0.00 | 0.00 | 57 | 1013.7 |
| 20260830104346 | 24 | 159 | 4.8 | 6.4 | 0.00 | 0.00 | 0.00 | 57 | 1013.9 |
| 20260830103844 | 24 | 166 | 4.8 | 4.8 | 0.00 | 0.00 | 0.00 | 57 | 1013.7 |
| 20260830103341 | 24 | 165 | 1.6 | 6.4 | 0.00 | 0.00 | 0.00 | 57 | 1013.9 |
| 20260830102838 | 24 | 158 | 6.4 | 9.7 | 0.00 | 0.00 | 0.00 | 57 | 1013.7 |
| 20260830102334 | 24 | 158 | 3.2 | 8.0 | 0.00 | 0.00 | 0.00 | 57 | 1013.9 |
| 20260830101830 | 24 | 166 | 4.8 | 6.4 | 0.00 | 0.00 | 0.00 | 57 | 1014.2 |
| 20260830101325 | 24 | 180 | 4.8 | 6.4 | 0.00 | 0.00 | 0.00 | 57 | 1014.2 |
| 20260830100825 | 24 | 187 | 1.6 | 8.0 | 0.00 | 0.00 | 0.00 | 57 | 1013.9 |
| 20260830100319 | 24 | 172 | 0.0 | 8.0 | 0.00 | 0.00 | 0.00 | 56 | 1014.1 |
| 20260830095818 | 24 | 141 | 4.8 | 6.4 | 0.00 | 0.00 | 0.00 | 56 | 1013.8 |